Location: Boca do Mato
(22.9085°S, 43.2930°W)
Time: 22:29:45
(UTC+00:00)

Meteor 2-19 Rocket - Pass Details

Date: 14 July 2020
Orbit: 937 x 958 km, 82.5° (Epoch: 10 August)

Event Time Altitude Azimuth Distance (km) Brightness Sun altitude
Rises 08:44:41 0° 356° (N) 3,611 7.7 -11.4°
Reaches altitude 10° 08:47:09 10° 355° (N) 2,674 7.0 -10.8°
Maximum altitude 08:53:18 88° 267° (W) 966 4.5 -9.5°
Drops below altitude 10° 08:59:31 10° 175° (S) 2,708 6.7 -8.1°
Sets 09:02:02 0° 175° (S) 3,660 7.3 -7.6°
